Voltar ao catálogo

FENGYUN 1C DEB

AtivoSSO
NORAD 31023·DEBRIS·🇨🇳 China

Lançado May 10, 1999 de Taiyuan Satellite Launch Center

Loading…

Próximas Passagens (próximas 24 horas)

TLE

AtualizadoSource: Space-Track

Época: Sep 12, 2026, 04:34 UTC

1 31023U 99025BDR 26255.19083573  .00000090  00000-0  77590-4 0  9991
2 31023  98.8406 239.1027 0082264 172.7910 187.4462 14.06822814733460

Acompanhe FENGYUN 1C DEB em tempo real com AllMySat

Download on the App Store